• In Czech Republic
  • List of Countries
  • For 7 days
  • Water Temperature
  • Satellite Maps
  • Weather Map
  • Weather Widgets
  • user-avatar
    Login

    Hourly Weather Alcazar de San Juan

    Today, 18 August, Saturday

    Time Temperature Precipitation Wind Pressure Humidity
    00:00 +26°C° 0 mm 5 mps 708 mmHg 52%
    01:00 +26°C° 0 mm 5 mps 708 mmHg 54%
    02:00 +25°C° 0 mm 5 mps 708 mmHg 56%
    03:00 +23°C° 0 mm 5 mps 708 mmHg 57%
    04:00 +23°C° 0 mm 4 mps 708 mmHg 59%
    05:00 +22°C° 0 mm 4 mps 708 mmHg 61%
    06:00 +22°C° 0 mm 4 mps 708 mmHg 62%
    07:00 +23°C° 0 mm 4 mps 708 mmHg 57%
    08:00 +26°C° 0 mm 4 mps 708 mmHg 52%
    09:00 +27°C° 0 mm 4 mps 708 mmHg 47%
    10:00 +29°C° 0 mm 3 mps 708 mmHg 42%
    11:00 +30°C° 0 mm 3 mps 708 mmHg 36%
    12:00 +32°C° 0 mm 2 mps 708 mmHg 31%
    13:00 +32°C° 0 mm 2 mps 708 mmHg 29%
    14:00 +34°C° 0 mm 2 mps 708 mmHg 28%
    15:00 +34°C° 0 mm 2 mps 707 mmHg 26%
    16:00 +34°C° 0 mm 3 mps 707 mmHg 28%
    17:00 +33°C° 0 mm 4 mps 707 mmHg 30%
    18:00 +33°C° 0 mm 5 mps 707 mmHg 33%
    19:00 +30°C° 0.1 mm 6 mps 708 mmHg 40%
    20:00 +29°C° 0.1 mm 7 mps 708 mmHg 47%
    21:00 +27°C° 0.1 mm 7 mps 708 mmHg 54%
    22:00 +26°C° 0 mm 7 mps 708 mmHg 59%
    23:00 +24°C° 0 mm 7 mps 708 mmHg 63%

    Tomorrow, 19 August, Sunday

    Time Temperature Precipitation Wind Pressure Humidity
    00:00 +24°C° 0 mm 7 mps 708 mmHg 67%
    01:00 +23°C° 0 mm 6 mps 708 mmHg 69%
    02:00 +23°C° 0 mm 6 mps 708 mmHg 71%
    03:00 +22°C° 0 mm 6 mps 708 mmHg 72%
    04:00 +22°C° 0 mm 6 mps 708 mmHg 73%
    05:00 +22°C° 0 mm 6 mps 708 mmHg 74%
    06:00 +21°C° 0 mm 6 mps 708 mmHg 75%
    07:00 +23°C° 0 mm 6 mps 709 mmHg 67%
    08:00 +26°C° 0 mm 6 mps 709 mmHg 58%
    09:00 +27°C° 0 mm 6 mps 709 mmHg 50%
    10:00 +29°C° 0 mm 6 mps 709 mmHg 45%
    11:00 +30°C° 0 mm 6 mps 709 mmHg 39%
    12:00 +33°C° 0 mm 5 mps 709 mmHg 33%
    13:00 +34°C° 0 mm 5 mps 709 mmHg 31%
    14:00 +34°C° 0 mm 5 mps 709 mmHg 29%
    15:00 +35°C° 0 mm 5 mps 709 mmHg 27%
    16:00 +34°C° 0 mm 5 mps 708 mmHg 28%
    17:00 +34°C° 0 mm 6 mps 708 mmHg 29%
    18:00 +33°C° 0 mm 6 mps 708 mmHg 30%
    19:00 +32°C° 0 mm 6 mps 708 mmHg 33%
    20:00 +29°C° 0 mm 6 mps 709 mmHg 37%
    21:00 +28°C° 0 mm 7 mps 709 mmHg 40%
    22:00 +27°C° 0 mm 6 mps 709 mmHg 45%
    23:00 +26°C° 0 mm 6 mps 709 mmHg 50%

    Day after tomorrow, 20 August, Monday

    Time Temperature Precipitation Wind Pressure Humidity
    00:00 +25°C° 0 mm 5 mps 709 mmHg 54%
    01:00 +25°C° 0 mm 5 mps 709 mmHg 55%
    02:00 +23°C° 0 mm 4 mps 709 mmHg 56%
    03:00 +22°C° 0 mm 4 mps 708 mmHg 57%
    04:00 +22°C° 0 mm 4 mps 708 mmHg 56%
    05:00 +22°C° 0 mm 4 mps 708 mmHg 56%
    06:00 +21°C° 0 mm 4 mps 709 mmHg 55%
    07:00 +23°C° 0 mm 4 mps 709 mmHg 47%
    08:00 +26°C° 0 mm 5 mps 709 mmHg 38%
    09:00 +28°C° 0 mm 5 mps 709 mmHg 29%
    10:00 +30°C° 0 mm 5 mps 709 mmHg 26%
    11:00 +32°C° 0 mm 5 mps 709 mmHg 23%
    12:00 +33°C° 0 mm 4 mps 709 mmHg 19%
    13:00 +34°C° 0 mm 4 mps 709 mmHg 19%
    14:00 +34°C° 0 mm 4 mps 708 mmHg 18%
    15:00 +35°C° 0 mm 4 mps 708 mmHg 17%
    16:00 +35°C° 0 mm 4 mps 708 mmHg 17%
    17:00 +34°C° 0 mm 4 mps 708 mmHg 18%
    18:00 +34°C° 0 mm 4 mps 708 mmHg 19%
    19:00 +32°C° 0 mm 4 mps 708 mmHg 22%
    20:00 +30°C° 0 mm 4 mps 708 mmHg 26%
    21:00 +28°C° 0 mm 5 mps 708 mmHg 29%
    22:00 +27°C° 0 mm 4 mps 708 mmHg 33%
    23:00 +26°C° 0 mm 4 mps 708 mmHg 36%

    21 August, Tuesday

    Time Temperature Precipitation Wind Pressure Humidity
    00:00 +26°C° 0 mm 4 mps 708 mmHg 40%
    01:00 +25°C° 0 mm 4 mps 708 mmHg 42%
    02:00 +24°C° 0 mm 3 mps 708 mmHg 44%
    03:00 +24°C° 0 mm 3 mps 707 mmHg 46%
    04:00 +24°C° 0 mm 3 mps 707 mmHg 46%
    05:00 +22°C° 0 mm 3 mps 708 mmHg 47%
    06:00 +22°C° 0 mm 3 mps 708 mmHg 47%
    07:00 +25°C° 0 mm 4 mps 708 mmHg 41%
    08:00 +27°C° 0 mm 4 mps 708 mmHg 35%
    09:00 +30°C° 0 mm 5 mps 709 mmHg 29%
    10:00 +32°C° 0 mm 4 mps 708 mmHg 27%
    11:00 +33°C° 0 mm 4 mps 708 mmHg 24%
    12:00 +34°C° 0 mm 4 mps 708 mmHg 22%
    13:00 +35°C° 0 mm 4 mps 708 mmHg 20%
    14:00 +35°C° 0 mm 4 mps 708 mmHg 19%
    15:00 +36°C° 0 mm 4 mps 707 mmHg 18%
    16:00 +35°C° 0 mm 4 mps 707 mmHg 18%
    17:00 +35°C° 0 mm 5 mps 707 mmHg 19%
    18:00 +34°C° 0 mm 5 mps 707 mmHg 19%
    19:00 +33°C° 0 mm 5 mps 707 mmHg 23%
    20:00 +30°C° 0 mm 5 mps 707 mmHg 26%
    21:00 +28°C° 0 mm 6 mps 707 mmHg 30%
    22:00 +28°C° 0 mm 5 mps 707 mmHg 34%
    23:00 +27°C° 0 mm 5 mps 707 mmHg 37%

    22 August, Wednesday

    Time Temperature Precipitation Wind Pressure Humidity
    00:00 +26°C° 0 mm 4 mps 707 mmHg 41%
    01:00 +25°C° 0 mm 4 mps 707 mmHg 43%
    02:00 +25°C° 0 mm 4 mps 707 mmHg 44%
    03:00 +23°C° 0 mm 4 mps 707 mmHg 46%
    04:00 +24°C° 0 mm 3 mps 707 mmHg 46%
    05:00 +24°C° 0 mm 3 mps 707 mmHg 46%
    06:00 +24°C° 0 mm 3 mps 707 mmHg 46%
    07:00 +25°C° 0 mm 3 mps 707 mmHg 41%
    08:00 +27°C° 0 mm 3 mps 708 mmHg 36%
    09:00 +29°C° 0 mm 3 mps 708 mmHg 30%
    10:00 +30°C° 0 mm 3 mps 708 mmHg 27%
    11:00 +33°C° 0 mm 3 mps 708 mmHg 24%
    12:00 +34°C° 0 mm 3 mps 708 mmHg 21%
    13:00 +35°C° 0 mm 3 mps 707 mmHg 20%
    14:00 +35°C° 0 mm 3 mps 707 mmHg 19%
    15:00 +35°C° 0 mm 3 mps 707 mmHg 18%
    16:00 +35°C° 0 mm 3 mps 707 mmHg 19%
    17:00 +35°C° 0 mm 3 mps 707 mmHg 19%
    18:00 +34°C° 0 mm 3 mps 707 mmHg 20%
    19:00 +33°C° 0 mm 4 mps 707 mmHg 23%
    20:00 +30°C° 0 mm 4 mps 707 mmHg 26%
    21:00 +29°C° 0 mm 5 mps 707 mmHg 29%
    22:00 +28°C° 0 mm 4 mps 707 mmHg 33%
    23:00 +27°C° 0 mm 4 mps 707 mmHg 36%

    23 August, Thursday

    Time Temperature Precipitation Wind Pressure Humidity
    00:00 +26°C° 0 mm 3 mps 707 mmHg 40%
    01:00 +26°C° 0 mm 3 mps 707 mmHg 41%
    02:00 +25°C° 0 mm 3 mps 706 mmHg 43%
    03:00 +25°C° 0 mm 3 mps 706 mmHg 45%
    04:00 +25°C° 0 mm 3 mps 706 mmHg 46%
    05:00 +24°C° 0 mm 2 mps 706 mmHg 47%
    06:00 +24°C° 0 mm 2 mps 707 mmHg 49%
    07:00 +26°C° 0 mm 2 mps 707 mmHg 43%
    08:00 +28°C° 0 mm 2 mps 707 mmHg 38%
    09:00 +30°C° 0 mm 2 mps 707 mmHg 32%
    10:00 +31°C° 0 mm 2 mps 707 mmHg 28%
    11:00 +34°C° 0 mm 2 mps 707 mmHg 25%
    12:00 +34°C° 0 mm 1 mps 707 mmHg 21%
    13:00 +36°C° 0 mm 2 mps 707 mmHg 20%
    14:00 +36°C° 0 mm 2 mps 707 mmHg 19%
    15:00 +36°C° 0 mm 2 mps 706 mmHg 17%
    16:00 +36°C° 0 mm 3 mps 706 mmHg 18%
    17:00 +36°C° 0 mm 3 mps 706 mmHg 19%
    18:00 +35°C° 0 mm 4 mps 706 mmHg 20%
    19:00 +33°C° 0.1 mm 4 mps 707 mmHg 25%
    20:00 +32°C° 0.1 mm 5 mps 707 mmHg 31%
    21:00 +29°C° 0.1 mm 6 mps 707 mmHg 37%
    22:00 +28°C° 0 mm 5 mps 707 mmHg 40%
    23:00 +27°C° 0 mm 4 mps 707 mmHg 43%
    Show more